Flag for Japan Weather past 2 weeks in Hamamatsu, Japan

Now
69 °F

Fog.


Feels Like: 69 °F
Forecast: 67 / 80 °F
Wind: 12 mph from Southwest

Location: Omaezaki

Current Time: May 31, 2015 at 12:35:00 AM

Latest Report: May 30, 2015 at 11:00 PM


Visibility: 5 mi

Pressure: 29.59 "Hg

Humidity: 92%

Dew point: 67 °F

Location of HamamatsuLocation

Historic Weather in Hamamatsu — Graph

°F

Hamamatsu temperature yesterday

Maximum temperature yesterday: 77 °F (at 2:00 PM)
Minimum temperature yesterday: 67 °F (at 3:00 AM)
Average temperature yesterday: 71 °F

Past Weeks' High & Low Weather Summary

 TemperatureHumidityPressure
High77 °F (May 30, 2:00 PM)100% (May 16, 12:00 AM)30.02 "Hg (May 16, 12:00 AM)
Low57 °F (May 21, 5:00 AM)49% (May 21, 2:00 AM)29.50 "Hg (May 20, 3:00 PM)
Average67 °F84%29.78 "Hg
* Reported May 15 11:00 PM — May 30 11:00 PM, Hamamatsu, Weather by CustomWeather, © 2015

Note: Actual official high and low records may vary slightly from our data, if they occured in-between our weather recording intervals... More about our weather records

Advertising

Hamamatsu weather history for previous 24 hours

 ConditionsComfort  
Time TempWeatherWind HumidityBarometerVisibility
11:00 PM
Sat, May 30
69 °FFog.12 mph92%29.59 "Hg5 mi
10:00 PM70 °FFog.12 mph90%29.59 "Hg5 mi
9:00 PM71 °FMild.13 mph87%29.60 "Hg8 mi
8:00 PM71 °FMild.14 mph85%29.58 "Hg9 mi
7:00 PM71 °FMild.14 mph86%29.56 "Hg7 mi
6:00 PM71 °FMild.15 mph84%29.55 "Hg7 mi
5:00 PM73 °FMild.15 mph83%29.55 "Hg8 mi
4:00 PM74 °FMild.12 mph79%29.56 "Hg9 mi
3:00 PM74 °FMild.12 mph78%29.57 "Hg10 mi
2:00 PM77 °FMild.10 mph70%29.57 "Hg12 mi
1:00 PM74 °FMild.9 mph78%29.59 "Hg12 mi
11:00 AM74 °FMild.10 mph75%29.62 "Hg7 mi
10:00 AM72 °FMild.9 mph79%29.64 "Hg7 mi
9:00 AM73 °FMild.6 mph79%29.64 "Hg9 mi
8:00 AM72 °FMild.7 mph80%29.65 "Hg12 mi
7:00 AM69 °FMild.6 mph87%29.65 "Hg12 mi
5:00 AM67 °FMild.8 mph90%29.65 "Hg9 mi
4:00 AM68 °FFog.6 mph90%29.65 "Hg6 mi
3:00 AM67 °FMild.7 mph87%29.64 "Hg11 mi
2:00 AM68 °FMild.7 mph85%29.63 "Hg8 mi
1:00 AM69 °FMild.7 mph84%29.64 "Hg7 mi
12:00 AM70 °FMild.12 mph75%29.65 "Hg12 mi
Weather by CustomWeather, © 2015

See weather overviewHow to use our weather pages